When you browse on this site, cookies collect data to enhance your experience and personalize the content and advertising you see.
Visit our Privacy Policy to learn more. By continuing to use the site, you agree to this use of cookies and data.
  • In Hungary
  • List of Countries
  • For 7 days
  • Water Temperature
  • Weather Map
  • News
  • Weather Widgets
  • user-avatar
    Login

    Hourly Weather Malyy Burtas

    Today, 14 October, Monday

    Time Temperature Precipitation Wind Pressure Humidity
    00:00 +8°C° 0 mm 4 mps 745 mmHg 93%
    01:00 +7°C° 0 mm 4 mps 746 mmHg 94%
    02:00 +7°C° 0 mm 4 mps 746 mmHg 94%
    03:00 +7°C° 0 mm 4 mps 746 mmHg 95%
    04:00 +7°C° 0 mm 4 mps 746 mmHg 95%
    05:00 +7°C° 0 mm 4 mps 746 mmHg 96%
    06:00 +6°C° 0 mm 4 mps 747 mmHg 96%
    07:00 +7°C° 0 mm 4 mps 747 mmHg 94%
    08:00 +8°C° 0 mm 4 mps 747 mmHg 92%
    09:00 +8°C° 0 mm 5 mps 748 mmHg 89%
    10:00 +9°C° 0 mm 5 mps 748 mmHg 83%
    11:00 +10°C° 0 mm 5 mps 748 mmHg 76%
    12:00 +13°C° 0 mm 5 mps 749 mmHg 69%
    13:00 +13°C° 0 mm 5 mps 749 mmHg 69%
    14:00 +13°C° 0 mm 4 mps 749 mmHg 68%
    15:00 +13°C° 0 mm 4 mps 748 mmHg 66%
    16:00 +13°C° 0 mm 4 mps 748 mmHg 72%
    17:00 +12°C° 0 mm 3 mps 748 mmHg 77%
    18:00 +11°C° 0 mm 3 mps 747 mmHg 82%
    19:00 +11°C° 0 mm 4 mps 747 mmHg 84%
    20:00 +12°C° 0 mm 5 mps 746 mmHg 86%
    21:00 +12°C° 0 mm 5 mps 746 mmHg 87%
    22:00 +13°C° 0 mm 6 mps 745 mmHg 87%
    23:00 +13°C° 0 mm 6 mps 744 mmHg 86%

    Tomorrow, 15 October, Tuesday

    Time Temperature Precipitation Wind Pressure Humidity
    00:00 +14°C° 0 mm 7 mps 744 mmHg 86%
    01:00 +14°C° 0 mm 7 mps 743 mmHg 84%
    02:00 +12°C° 0 mm 7 mps 743 mmHg 83%
    03:00 +12°C° 0 mm 7 mps 743 mmHg 81%
    04:00 +13°C° 0 mm 6 mps 743 mmHg 82%
    05:00 +11°C° 0 mm 6 mps 743 mmHg 83%
    06:00 +11°C° 0 mm 6 mps 743 mmHg 84%
    07:00 +11°C° 0 mm 6 mps 743 mmHg 84%
    08:00 +12°C° 0 mm 7 mps 743 mmHg 83%
    09:00 +12°C° 0 mm 7 mps 743 mmHg 83%
    10:00 +14°C° 0 mm 7 mps 744 mmHg 77%
    11:00 +15°C° 0 mm 7 mps 744 mmHg 70%
    12:00 +16°C° 0 mm 7 mps 744 mmHg 64%
    13:00 +15°C° 0 mm 7 mps 745 mmHg 65%
    14:00 +15°C° 0 mm 7 mps 745 mmHg 65%
    15:00 +15°C° 0 mm 7 mps 746 mmHg 66%
    16:00 +14°C° 0 mm 6 mps 747 mmHg 70%
    17:00 +12°C° 0 mm 5 mps 747 mmHg 75%
    18:00 +11°C° 0 mm 4 mps 748 mmHg 79%
    19:00 +10°C° 0 mm 4 mps 748 mmHg 81%
    20:00 +8°C° 0 mm 4 mps 749 mmHg 82%
    21:00 +8°C° 0 mm 3 mps 750 mmHg 84%
    22:00 +7°C° 0 mm 3 mps 750 mmHg 85%
    23:00 +7°C° 0 mm 3 mps 751 mmHg 86%

    Day after tomorrow, 16 October, Wednesday

    Time Temperature Precipitation Wind Pressure Humidity
    00:00 +5°C° 0 mm 3 mps 751 mmHg 86%
    01:00 +4°C° 0 mm 3 mps 752 mmHg 86%
    02:00 +3°C° 0 mm 3 mps 752 mmHg 85%
    03:00 +3°C° 0 mm 3 mps 753 mmHg 85%
    04:00 +2°C° 0 mm 3 mps 753 mmHg 84%
    05:00 +2°C° 0 mm 3 mps 753 mmHg 83%
    06:00 +1°C° 0 mm 3 mps 754 mmHg 82%
    07:00 +2°C° 0 mm 3 mps 754 mmHg 78%
    08:00 +3°C° 0 mm 2 mps 755 mmHg 75%
    09:00 +3°C° 0 mm 2 mps 755 mmHg 72%
    10:00 +4°C° 0 mm 2 mps 755 mmHg 67%
    11:00 +5°C° 0 mm 2 mps 755 mmHg 63%
    12:00 +6°C° 0 mm 2 mps 755 mmHg 58%
    13:00 +6°C° 0 mm 2 mps 755 mmHg 56%
    14:00 +8°C° 0 mm 1 mps 755 mmHg 54%
    15:00 +8°C° 0 mm 1 mps 755 mmHg 53%
    16:00 +7°C° 0 mm 1 mps 755 mmHg 57%
    17:00 +6°C° 0 mm 1 mps 755 mmHg 60%
    18:00 +5°C° 0 mm 2 mps 755 mmHg 64%
    19:00 +4°C° 0 mm 2 mps 755 mmHg 66%
    20:00 +4°C° 0 mm 2 mps 755 mmHg 67%
    21:00 +3°C° 0 mm 3 mps 755 mmHg 69%
    22:00 +3°C° 0 mm 3 mps 754 mmHg 69%
    23:00 +3°C° 0 mm 3 mps 754 mmHg 69%

    17 October, Thursday

    Time Temperature Precipitation Wind Pressure Humidity
    00:00 +3°C° 0 mm 4 mps 754 mmHg 69%
    01:00 +3°C° 0 mm 4 mps 754 mmHg 68%
    02:00 +4°C° 0 mm 4 mps 753 mmHg 67%
    03:00 +4°C° 0 mm 3 mps 753 mmHg 66%
    04:00 +4°C° 0 mm 4 mps 753 mmHg 69%
    05:00 +4°C° 0 mm 4 mps 753 mmHg 71%
    06:00 +3°C° 0 mm 4 mps 752 mmHg 74%
    07:00 +3°C° 0 mm 5 mps 752 mmHg 72%
    08:00 +4°C° 0 mm 6 mps 752 mmHg 71%
    09:00 +5°C° 0 mm 6 mps 751 mmHg 70%
    10:00 +7°C° 0 mm 6 mps 751 mmHg 67%
    11:00 +8°C° 0 mm 7 mps 751 mmHg 63%
    12:00 +10°C° 0 mm 7 mps 750 mmHg 60%
    13:00 +10°C° 0 mm 7 mps 750 mmHg 61%
    14:00 +11°C° 0 mm 7 mps 749 mmHg 62%
    15:00 +12°C° 0 mm 7 mps 749 mmHg 63%
    16:00 +11°C° 0 mm 6 mps 748 mmHg 67%
    17:00 +10°C° 0 mm 6 mps 748 mmHg 71%
    18:00 +9°C° 0 mm 5 mps 748 mmHg 74%
    19:00 +9°C° 0 mm 5 mps 748 mmHg 78%
    20:00 +9°C° 0 mm 5 mps 748 mmHg 81%
    21:00 +10°C° 0 mm 4 mps 748 mmHg 84%
    22:00 +8°C° 0 mm 4 mps 747 mmHg 86%
    23:00 +8°C° 0 mm 4 mps 747 mmHg 89%

    18 October, Friday

    Time Temperature Precipitation Wind Pressure Humidity
    00:00 +8°C° 0 mm 4 mps 747 mmHg 91%
    01:00 +9°C° 0 mm 3 mps 747 mmHg 92%
    02:00 +9°C° 0 mm 3 mps 746 mmHg 93%
    03:00 +8°C° 0 mm 2 mps 746 mmHg 94%
    04:00 +8°C° 0.1 mm 2 mps 746 mmHg 95%
    05:00 +8°C° 0.1 mm 2 mps 746 mmHg 96%
    06:00 +9°C° 0.1 mm 2 mps 746 mmHg 96%
    07:00 +10°C° 0.3 mm 1 mps 746 mmHg 95%
    08:00 +11°C° 0.3 mm 1 mps 746 mmHg 94%
    09:00 +11°C° 0.3 mm 1 mps 746 mmHg 93%
    10:00 +10°C° 1.8 mm 2 mps 746 mmHg 94%
    11:00 +10°C° 1.8 mm 3 mps 747 mmHg 94%
    12:00 +10°C° 1.8 mm 3 mps 747 mmHg 95%
    13:00 +8°C° 0.7 mm 4 mps 747 mmHg 93%
    14:00 +7°C° 0.7 mm 5 mps 748 mmHg 92%
    15:00 +5°C° 0.7 mm 6 mps 748 mmHg 90%
    16:00 +4°C° 0 mm 6 mps 748 mmHg 88%
    17:00 +4°C° 0 mm 6 mps 749 mmHg 85%
    18:00 +3°C° 0 mm 7 mps 749 mmHg 83%
    19:00 +3°C° 0 mm 6 mps 750 mmHg 82%
    20:00 +3°C° 0 mm 6 mps 750 mmHg 81%
    21:00 +2°C° 0 mm 6 mps 751 mmHg 80%
    22:00 +2°C° 0 mm 5 mps 751 mmHg 81%
    23:00 +2°C° 0 mm 5 mps 752 mmHg 81%

    19 October, Saturday

    Time Temperature Precipitation Wind Pressure Humidity
    00:00 +1°C° 0 mm 5 mps 752 mmHg 82%
    01:00 +1°C° 0 mm 5 mps 752 mmHg 83%
    02:00 0°C° 0 mm 5 mps 753 mmHg 84%
    03:00 0°C° 0 mm 4 mps 753 mmHg 85%
    04:00 0°C° 0 mm 5 mps 753 mmHg 85%
    05:00 0°C° 0 mm 5 mps 754 mmHg 86%
    06:00 -1°C° 0 mm 5 mps 754 mmHg 86%
    07:00 0°C° 0 mm 5 mps 754 mmHg 84%
    08:00 0°C° 0 mm 5 mps 754 mmHg 81%
    09:00 0°C° 0 mm 5 mps 755 mmHg 78%
    10:00 +1°C° 0 mm 4 mps 755 mmHg 76%
    11:00 +3°C° 0 mm 4 mps 755 mmHg 73%
    12:00 +3°C° 0 mm 4 mps 755 mmHg 70%
    13:00 +4°C° 0 mm 4 mps 755 mmHg 70%
    14:00 +4°C° 0 mm 3 mps 755 mmHg 69%
    15:00 +4°C° 0 mm 3 mps 755 mmHg 69%
    16:00 +4°C° 0 mm 3 mps 755 mmHg 70%
    17:00 +5°C° 0 mm 2 mps 755 mmHg 72%
    18:00 +5°C° 0 mm 2 mps 755 mmHg 73%
    19:00 +5°C° 0 mm 2 mps 756 mmHg 73%
    20:00 +5°C° 0 mm 2 mps 756 mmHg 74%
    21:00 +5°C° 0 mm 2 mps 756 mmHg 75%
    22:00 +5°C° 0 mm 2 mps 756 mmHg 76%
    23:00 +5°C° 0 mm 2 mps 756 mmHg 78%
    Show more